[[{"header":{"parameterUnit":"m.s-1","parameterCategory":1,"la1":30.2991,"la2":30.254,"lo1":-89.0895,"lo2":-89.0444,"dy":0.0017,"dx":0.0017,"nx":28,"ny":28,"refTime":"2025-11-20T03:00:00:Z","depth":0,"parameterNumber":2,"parameterNumberName":"U-component_of_WINDS"},"data":[0,0,0,0,0,0,0,0,0,0,0,0,0,0,0,0,0,0,0,0,0,0,0,0,0,0,0,0,0,0,0,0,0,0,0,0,0,0,0,0,0,0,0,0,0,0,0,0,0,0,0,0,0,0,0,0,0,0,-0.248,-0.2479,0,-0.2379,-0.2378,-0.2377,-0.2307,-0.2307,-0.2306,-0.2306,-0.2201,-0.2199,-0.2196,0,0,0,0,0,0,0,0,0,0,0,0,0,-0.2613,-0.2611,-0.248,-0.2479,-0.2478,-0.2379,-0.2378,-0.2376,-0.2307,-0.2307,-0.2306,-0.2306,-0.2202,-0.2199,-0.2196,0,0,0,0,0,0,0,0,0,0,0,0,0,-0.2538,-0.2611,-0.2481,-0.2432,-0.2426,-0.2379,-0.2378,-0.2376,-0.2308,-0.2307,-0.2306,-0.2305,-0.2203,-0.2199,-0.2196,-0.2189,0,0,-0.2185,-0.2184,0,0,0,0,0,0,0,0,-0.2543,-0.2533,-0.244,-0.2435,-0.2429,-0.2355,-0.2386,-0.2313,-0.2308,-0.2353,-0.2306,-0.2305,-0.2253,-0.2245,-0.2228,-0.2184,-0.218,-0.2185,-0.2183,-0.2181,-0.218,0,0,0,0,0,0,0,-0.2548,-0.2537,-0.244,-0.2439,-0.2432,-0.2414,-0.2403,-0.2372,-0.2308,-0.2349,-0.2343,-0.2332,-0.2249,-0.2231,-0.2225,-0.2178,-0.2185,-0.2182,-0.218,-0.2178,-0.2124,-0.2125,0,0,0,0,0,0,-0.2561,-0.2542,-0.2443,-0.2437,-0.2485,-0.2413,-0.24,-0.2379,-0.2308,-0.2297,-0.2333,-0.2329,-0.2237,-0.2229,-0.2221,-0.2208,-0.2181,-0.2178,-0.2176,-0.2124,-0.2125,-0.2125,0,0,0,0,0,0,-0.2564,-0.2553,-0.2447,-0.2488,-0.2473,-0.2411,-0.2389,-0.2378,-0.2359,-0.2296,-0.2285,-0.2326,-0.2237,-0.2226,-0.2198,-0.2204,-0.2176,-0.2173,-0.2123,-0.2124,-0.2125,-0.2184,0,0,0,0,0,0,-0.2568,-0.2554,-0.2551,-0.2489,-0.2472,-0.2427,-0.2389,-0.2376,-0.2354,-0.2348,-0.2287,-0.2276,-0.2235,-0.2203,-0.2194,-0.2199,-0.217,-0.2122,-0.2123,-0.2125,-0.2181,-0.2187,-0.2192,0,0,0,0,0,-0.2573,-0.2572,-0.2552,-0.254,-0.2467,-0.2427,-0.2417,-0.2371,-0.2355,-0.2351,-0.2311,-0.2278,-0.2205,-0.2201,-0.219,-0.2194,-0.2122,-0.2123,-0.2125,-0.2179,-0.2186,-0.2192,0,0,0,0,0,0,-0.2637,-0.2563,-0.2539,-0.2518,-0.2479,-0.2415,-0.241,-0.2379,-0.2344,-0.234,-0.2284,-0.227,-0.2248,-0.2218,-0.2215,-0.2184,-0.2159,-0.2159,-0.2204,-0.221,-0.2216,-0.2223,-0.2168,0,0,0,0,0,-0.2648,-0.2623,-0.2559,-0.2546,-0.2528,-0.2472,-0.2453,-0.2421,-0.2378,-0.2362,-0.2319,-0.2279,-0.2247,-0.2227,-0.2194,-0.2177,-0.2162,-0.2174,-0.2179,-0.2184,-0.2184,-0.2172,-0.2177,-0.213,-0.213,-0.213,0,0,-0.2672,-0.2628,-0.2615,-0.2558,-0.2524,-0.2499,-0.2459,-0.2434,-0.2414,-0.2358,-0.2329,-0.2296,-0.2248,-0.2225,-0.2213,-0.2199,-0.2193,-0.2185,-0.219,-0.2187,-0.2175,-0.2179,-0.2183,-0.2131,-0.2131,-0.2131,0,0,-0.2701,-0.2666,-0.2651,-0.2618,-0.2568,-0.2531,-0.2528,-0.2468,-0.2445,-0.2415,-0.2372,-0.2348,-0.2294,-0.2261,-0.2237,-0.2255,-0.2224,-0.2246,-0.2273,-0.2263,-0.2267,-0.227,-0.2276,-0.2279,-0.2246,-0.2246,-0.2246,0,-0.2737,-0.2697,-0.2647,-0.2625,-0.2601,-0.2549,-0.2534,-0.2504,-0.2445,-0.243,-0.2415,-0.2346,-0.231,-0.2279,-0.2284,-0.2266,-0.226,-0.2252,-0.227,-0.2273,-0.2275,-0.228,-0.2283,-0.2249,-0.2249,-0.2249,-0.2248,0,-0.2743,-0.2716,-0.271,-0.2656,-0.2631,-0.2612,-0.256,-0.254,-0.251,-0.2475,-0.2445,-0.24,-0.2357,-0.2347,-0.2317,-0.2312,-0.2305,-0.2281,-0.2255,-0.2283,-0.2287,-0.2289,-0.2254,-0.2252,-0.2252,-0.2251,0,0,-0.281,-0.2728,-0.2727,-0.2702,-0.2642,-0.262,-0.2599,-0.2557,-0.2542,-0.2504,-0.2484,-0.244,-0.2418,-0.2391,-0.2356,-0.2347,-0.2365,-0.2324,-0.2322,-0.2334,-0.2356,-0.2375,-0.2378,-0.2344,-0.2344,-0.2344,-0.2361,0,-0.2831,-0.279,-0.2745,-0.272,-0.2695,-0.2645,-0.2627,-0.2588,-0.2555,-0.2528,-0.249,-0.246,-0.2433,-0.2416,-0.2405,-0.2365,-0.2368,-0.2363,-0.2325,-0.2324,-0.2339,-0.238,-0.24,-0.2418,-0.2362,-0.2362,-0.2362,0,-0.2849,-0.2814,-0.2787,-0.273,-0.2718,-0.2702,-0.266,-0.2635,-0.2591,-0.2567,-0.2537,-0.2501,-0.2476,-0.2453,-0.2418,-0.2415,-0.2397,-0.2375,-0.2374,-0.2369,-0.2345,-0.2376,-0.2422,-0.2425,-0.2364,-0.2364,-0.2364,0,-0.2901,-0.2847,-0.2823,-0.2803,-0.2736,-0.2726,-0.2698,-0.2653,-0.2631,-0.2594,-0.2579,-0.254,-0.2519,-0.2489,-0.2443,-0.2431,-0.2412,-0.2386,-0.2391,-0.2393,-0.239,-0.2391,-0.2434,-0.2378,-0.2378,-0.2378,-0.2378,0,-0.293,-0.2915,-0.2846,-0.2831,-0.2814,-0.2762,-0.2746,-0.2713,-0.2673,-0.2651,-0.2605,-0.2586,-0.2526,-0.2499,-0.2463,-0.2439,-0.243,-0.2409,-0.24,-0.2414,-0.2416,-0.2401,-0.2399,-0.2379,-0.2378,-0.2378,-0.2378,0,-0.2984,-0.2937,-0.2909,-0.2848,-0.2833,-0.2822,-0.277,-0.2754,-0.2718,-0.2691,-0.2682,-0.2625,-0.2591,-0.2542,-0.2493,-0.2469,-0.245,-0.2435,-0.2466,-0.246,-0.2469,-0.2469,-0.2503,-0.2505,-0.2449,-0.245,-0.245,0,-0.3006,-0.2993,-0.2932,-0.2914,-0.2887,-0.286,-0.2837,-0.2785,-0.2764,-0.2712,-0.2703,-0.2665,-0.2633,-0.2581,-0.2535,-0.2497,-0.2481,-0.2496,-0.2475,-0.2489,-0.2481,-0.2483,-0.2481,-0.2501,-0.2502,-0.2502,-0.2503,0,-0.3048,-0.3026,-0.2995,-0.2957,-0.2931,-0.2898,-0.2863,-0.2851,-0.2792,-0.2769,-0.2735,-0.271,-0.266,-0.2624,-0.258,-0.255,-0.2517,-0.251,-0.2509,-0.2523,-0.2542,-0.2532,-0.2479,-0.2509,-0.2509,-0.2508,-0.2508,-0.2508,-0.3087,-0.3074,-0.3028,-0.2996,-0.2964,-0.2932,-0.2915,-0.2876,-0.2847,-0.2803,-0.2774,-0.2741,-0.2696,-0.2634,-0.2606,-0.2579,-0.2565,-0.2564,-0.2564,-0.2564,-0.2569,-0.2546,-0.257,-0.257,-0.257,-0.257,-0.257,0,-0.3127,-0.3096,-0.3067,-0.3019,-0.2993,-0.2965,-0.2924,-0.2905,-0.2876,-0.2838,-0.2807,-0.2767,-0.2731,-0.2683,-0.2644,-0.2631,-0.2615,-0.2623,-0.2623,-0.2617,-0.2584,-0.2588,-0.2637,-0.2637,-0.2637,-0.2637,-0.2637,-0.2637,-0.3146,-0.3122,-0.3094,-0.3054,-0.3022,-0.299,-0.2969,-0.294,-0.2909,-0.2866,-0.2837,-0.2806,-0.2763,-0.272,-0.2686,-0.2673,-0.2661,-0.2673,-0.2655,-0.2625,-0.2619,-0.2613,-0.2617,-0.2671,-0.2671,-0.269,-0.2691,-0.2691]},{"header":{"parameterUnit":"m.s-1","parameterCategory":1,"la1":30.2991,"la2":30.254,"lo1":-89.0895,"lo2":-89.0444,"dy":0.0017,"dx":0.0017,"nx":28,"ny":28,"refTime":"2025-11-20T03:00:00:Z","depth":0,"parameterNumber":3,"parameterNumberName":"V-component_of_WINDS"},"data":[0,0,0,0,0,0,0,0,0,0,0,0,0,0,0,0,0,0,0,0,0,0,0,0,0,0,0,0,0,0,0,0,0,0,0,0,0,0,0,0,0,0,0,0,0,0,0,0,0,0,0,0,0,0,0,0,0,0,1.6401,1.6401,0,1.6408,1.6408,1.6408,1.6401,1.64,1.64,1.64,1.6405,1.6406,1.6406,0,0,0,0,0,0,0,0,0,0,0,0,0,1.6379,1.6379,1.6401,1.6401,1.6401,1.6408,1.6408,1.6408,1.6401,1.64,1.64,1.64,1.6405,1.6406,1.6406,0,0,0,0,0,0,0,0,0,0,0,0,0,1.6387,1.6379,1.6401,1.6398,1.6398,1.6408,1.6408,1.6408,1.6401,1.64,1.64,1.6399,1.6405,1.6406,1.6406,1.6419,0,0,1.6408,1.6409,0,0,0,0,0,0,0,0,1.6387,1.6388,1.6398,1.6398,1.6398,1.6403,1.6403,1.6412,1.6401,1.64,1.64,1.6399,1.6405,1.6405,1.6408,1.6419,1.642,1.6408,1.6409,1.6409,1.6409,0,0,0,0,0,0,0,1.6386,1.6388,1.6404,1.6398,1.6398,1.6396,1.6397,1.6404,1.6404,1.64,1.6399,1.64,1.6405,1.6407,1.6408,1.642,1.6408,1.6409,1.6409,1.641,1.6444,1.6444,0,0,0,0,0,0,1.6386,1.6387,1.6403,1.6404,1.6391,1.6397,1.6398,1.6402,1.6404,1.6404,1.6401,1.64,1.6406,1.6407,1.6408,1.6424,1.6409,1.641,1.641,1.6443,1.6444,1.6445,0,0,0,0,0,0,1.6386,1.6388,1.6403,1.6395,1.6397,1.6398,1.6402,1.6402,1.6405,1.6405,1.6405,1.6403,1.6406,1.6407,1.6417,1.6424,1.641,1.641,1.6443,1.6444,1.6444,1.6456,0,0,0,0,0,0,1.6385,1.6388,1.6392,1.6396,1.6398,1.6412,1.6403,1.6403,1.6406,1.6405,1.6408,1.6408,1.6406,1.6416,1.6418,1.6425,1.6411,1.6442,1.6443,1.6444,1.6455,1.6457,1.6459,0,0,0,0,0,1.6384,1.6395,1.6393,1.6395,1.6404,1.6412,1.6414,1.6412,1.6407,1.6412,1.6412,1.6407,1.6423,1.6417,1.6419,1.6426,1.6442,1.6443,1.6444,1.6454,1.6457,1.6459,0,0,0,0,0,0,1.6391,1.6395,1.6393,1.6405,1.6408,1.6411,1.6417,1.6415,1.6419,1.6418,1.6415,1.6416,1.6427,1.6427,1.642,1.644,1.6432,1.6433,1.6439,1.6441,1.6443,1.6443,1.6412,0,0,0,0,0,1.6394,1.6401,1.6404,1.6414,1.6416,1.6417,1.642,1.6419,1.6422,1.6424,1.6425,1.6428,1.6434,1.6438,1.6443,1.6455,1.6456,1.6462,1.6464,1.6465,1.6467,1.6475,1.6477,1.6449,1.6449,1.6448,0,0,1.64,1.6403,1.6407,1.6416,1.6418,1.6426,1.6418,1.6425,1.6431,1.6424,1.6434,1.6436,1.6439,1.6451,1.6456,1.6452,1.6475,1.6467,1.6468,1.6469,1.6476,1.6479,1.6481,1.6449,1.6449,1.6449,0,0,1.6415,1.6417,1.6427,1.643,1.6435,1.6436,1.6438,1.6442,1.6443,1.6453,1.6449,1.6455,1.6465,1.6468,1.6471,1.6489,1.6485,1.649,1.6501,1.6509,1.6511,1.6513,1.652,1.6523,1.6492,1.6492,1.6492,0,1.6421,1.6433,1.6432,1.6441,1.6445,1.6441,1.645,1.6453,1.6459,1.6462,1.6458,1.6471,1.6473,1.6486,1.6491,1.6493,1.6496,1.649,1.6511,1.6513,1.6515,1.6521,1.6524,1.6493,1.6492,1.6492,1.6492,0,1.6441,1.6449,1.6456,1.6463,1.6468,1.6477,1.6478,1.6483,1.6482,1.6483,1.6494,1.6496,1.6503,1.6505,1.6503,1.6519,1.6516,1.6511,1.6503,1.6518,1.6525,1.6527,1.6494,1.6493,1.6493,1.6493,0,0,1.6458,1.6467,1.647,1.6474,1.648,1.6486,1.6495,1.6503,1.6507,1.6512,1.652,1.653,1.6526,1.6529,1.6528,1.6534,1.655,1.6529,1.6529,1.6533,1.6568,1.6572,1.6575,1.6548,1.6548,1.6548,1.6568,0,1.6474,1.6491,1.6492,1.6507,1.6515,1.6512,1.6521,1.6525,1.6527,1.6534,1.6535,1.6542,1.6536,1.6538,1.6545,1.6547,1.6557,1.6545,1.6555,1.6555,1.6555,1.6578,1.6582,1.66,1.657,1.6571,1.6571,0,1.6494,1.6501,1.6518,1.6525,1.6528,1.6535,1.6543,1.655,1.6555,1.6556,1.6561,1.6559,1.6569,1.656,1.6574,1.6566,1.657,1.6572,1.6573,1.6573,1.6564,1.658,1.6605,1.6608,1.6575,1.6574,1.6574,0,1.6506,1.652,1.6532,1.6536,1.6543,1.6549,1.6552,1.6558,1.6563,1.6569,1.6572,1.658,1.6584,1.6589,1.659,1.6583,1.6604,1.6595,1.6605,1.6605,1.6609,1.6609,1.6636,1.6611,1.6611,1.6611,1.6611,0,1.6524,1.6534,1.6538,1.6546,1.6558,1.6559,1.657,1.6573,1.6578,1.6586,1.6584,1.6591,1.6591,1.6599,1.6599,1.6611,1.6612,1.6613,1.6613,1.6614,1.6614,1.6616,1.6615,1.6612,1.6612,1.6611,1.6611,0,1.6539,1.6542,1.6556,1.6563,1.6565,1.6573,1.6579,1.6587,1.6589,1.6599,1.6601,1.6604,1.6614,1.6615,1.6625,1.6625,1.664,1.6638,1.6638,1.6638,1.6648,1.6647,1.6678,1.6682,1.6654,1.6654,1.6655,0,1.655,1.6559,1.6567,1.6573,1.6577,1.6586,1.6592,1.6593,1.6599,1.6608,1.6614,1.6623,1.6631,1.6645,1.6648,1.6656,1.6655,1.6665,1.6656,1.6657,1.6656,1.6656,1.6657,1.6667,1.6667,1.6668,1.6668,0,1.657,1.6571,1.658,1.659,1.6597,1.6604,1.6611,1.6616,1.6619,1.6625,1.6636,1.6641,1.6653,1.6662,1.6671,1.6674,1.6671,1.6671,1.6674,1.6674,1.6674,1.6675,1.6643,1.667,1.667,1.667,1.667,1.6669,1.6584,1.6592,1.66,1.661,1.6616,1.6623,1.6631,1.6634,1.6643,1.6653,1.6654,1.6665,1.6671,1.6683,1.6687,1.6695,1.6692,1.6696,1.6697,1.6698,1.6699,1.6673,1.6697,1.6697,1.6697,1.6697,1.6697,0,1.6604,1.6609,1.6619,1.6629,1.6638,1.6636,1.6644,1.6651,1.6661,1.6668,1.6676,1.6689,1.6698,1.6702,1.6712,1.6718,1.6717,1.6721,1.672,1.6721,1.6701,1.6698,1.6721,1.6721,1.6721,1.6721,1.6721,1.6721,1.6615,1.6629,1.6632,1.6649,1.6654,1.6666,1.6671,1.6678,1.6683,1.6698,1.6706,1.6709,1.6715,1.6726,1.6734,1.6735,1.6739,1.6743,1.6744,1.6725,1.6722,1.672,1.6717,1.6744,1.6744,1.6763,1.6763,1.6763]}]]